• en France
  • Liste des pays
  • À 7 jours
  • Température de l'eau
  • Carte satellitaire
  • Carte météo
  • Widgets météo
  • user-avatar
    Se connecter

    Météo par heure à Nikoncy

    Ce jour, 23 Juillet, Lundi

    Heure Température Précipitation Vent Pression Humidité
    00:00 +19°C° 0 mm 2 m/s 741 mmHg 98%
    01:00 +18°C° 0 mm 2 m/s 741 mmHg 98%
    02:00 +18°C° 0 mm 2 m/s 741 mmHg 98%
    03:00 +18°C° 0 mm 2 m/s 741 mmHg 98%
    04:00 +18°C° 0 mm 2 m/s 741 mmHg 98%
    05:00 +18°C° 0 mm 2 m/s 741 mmHg 98%
    06:00 +19°C° 0 mm 2 m/s 741 mmHg 96%
    07:00 +19°C° 0 mm 3 m/s 741 mmHg 94%
    08:00 +20°C° 0 mm 3 m/s 742 mmHg 91%
    09:00 +20°C° 0 mm 3 m/s 742 mmHg 89%
    10:00 +21°C° 0 mm 3 m/s 742 mmHg 86%
    11:00 +21°C° 0 mm 3 m/s 742 mmHg 84%
    12:00 +21°C° 0 mm 3 m/s 742 mmHg 81%
    13:00 +22°C° 0 mm 3 m/s 742 mmHg 77%
    14:00 +24°C° 0 mm 3 m/s 742 mmHg 74%
    15:00 +24°C° 0 mm 3 m/s 742 mmHg 74%
    16:00 +24°C° 0 mm 3 m/s 742 mmHg 74%
    17:00 +24°C° 0 mm 2 m/s 742 mmHg 75%
    18:00 +23°C° 0 mm 2 m/s 742 mmHg 80%
    19:00 +21°C° 0 mm 2 m/s 742 mmHg 85%
    20:00 +20°C° 0 mm 2 m/s 742 mmHg 90%
    21:00 +19°C° 0 mm 2 m/s 742 mmHg 91%
    22:00 +19°C° 0 mm 2 m/s 742 mmHg 93%
    23:00 +18°C° 0 mm 2 m/s 742 mmHg 95%

    Demain, 24 Juillet, Mardi

    Heure Température Précipitation Vent Pression Humidité
    00:00 +18°C° 0 mm 2 m/s 742 mmHg 96%
    01:00 +18°C° 0 mm 2 m/s 742 mmHg 96%
    02:00 +17°C° 0 mm 2 m/s 742 mmHg 97%
    03:00 +17°C° 0 mm 2 m/s 742 mmHg 97%
    04:00 +17°C° 0 mm 2 m/s 743 mmHg 97%
    05:00 +17°C° 0 mm 2 m/s 743 mmHg 97%
    06:00 +18°C° 0,1 mm 3 m/s 743 mmHg 96%
    07:00 +18°C° 0,1 mm 3 m/s 743 mmHg 95%
    08:00 +18°C° 0,1 mm 3 m/s 743 mmHg 94%
    09:00 +19°C° 0 mm 3 m/s 743 mmHg 91%
    10:00 +20°C° 0 mm 3 m/s 743 mmHg 88%
    11:00 +21°C° 0 mm 3 m/s 743 mmHg 85%
    12:00 +21°C° 0,1 mm 3 m/s 743 mmHg 83%
    13:00 +22°C° 0,1 mm 3 m/s 743 mmHg 81%
    14:00 +24°C° 0,1 mm 3 m/s 743 mmHg 78%
    15:00 +24°C° 0 mm 3 m/s 743 mmHg 79%
    16:00 +24°C° 0 mm 3 m/s 743 mmHg 81%
    17:00 +23°C° 0 mm 2 m/s 743 mmHg 82%
    18:00 +23°C° 0 mm 2 m/s 743 mmHg 85%
    19:00 +21°C° 0 mm 2 m/s 743 mmHg 87%
    20:00 +21°C° 0 mm 2 m/s 743 mmHg 90%
    21:00 +20°C° 0 mm 2 m/s 743 mmHg 92%
    22:00 +20°C° 0 mm 2 m/s 743 mmHg 94%
    23:00 +19°C° 0 mm 2 m/s 743 mmHg 96%

    Après-demain, 25 Juillet, Mercredi

    Heure Température Précipitation Vent Pression Humidité
    00:00 +19°C° 0 mm 2 m/s 743 mmHg 97%
    01:00 +19°C° 0 mm 2 m/s 743 mmHg 98%
    02:00 +18°C° 0 mm 2 m/s 744 mmHg 98%
    03:00 +18°C° 0 mm 2 m/s 744 mmHg 98%
    04:00 +18°C° 0 mm 2 m/s 744 mmHg 98%
    05:00 +18°C° 0 mm 2 m/s 744 mmHg 98%
    06:00 +20°C° 0 mm 2 m/s 744 mmHg 94%
    07:00 +21°C° 0 mm 2 m/s 744 mmHg 89%
    08:00 +24°C° 0 mm 2 m/s 745 mmHg 84%
    09:00 +25°C° 0,5 mm 2 m/s 745 mmHg 80%
    10:00 +26°C° 0,5 mm 3 m/s 745 mmHg 76%
    11:00 +28°C° 0,5 mm 3 m/s 745 mmHg 71%
    12:00 +28°C° 0,6 mm 3 m/s 745 mmHg 72%
    13:00 +28°C° 0,6 mm 3 m/s 745 mmHg 73%
    14:00 +27°C° 0,6 mm 4 m/s 745 mmHg 75%
    15:00 +27°C° 0,2 mm 3 m/s 745 mmHg 74%
    16:00 +27°C° 0,2 mm 3 m/s 745 mmHg 73%
    17:00 +27°C° 0,2 mm 3 m/s 745 mmHg 72%
    18:00 +25°C° 0 mm 3 m/s 745 mmHg 77%
    19:00 +24°C° 0 mm 2 m/s 745 mmHg 81%
    20:00 +21°C° 0 mm 2 m/s 745 mmHg 86%
    21:00 +20°C° 0 mm 2 m/s 745 mmHg 86%
    22:00 +19°C° 0 mm 2 m/s 746 mmHg 87%
    23:00 +18°C° 0 mm 2 m/s 746 mmHg 88%

    26 Juillet, Jeudi

    Heure Température Précipitation Vent Pression Humidité
    00:00 +18°C° 0 mm 2 m/s 745 mmHg 86%
    01:00 +17°C° 0 mm 2 m/s 745 mmHg 85%
    02:00 +17°C° 0 mm 2 m/s 745 mmHg 83%
    03:00 +17°C° 0 mm 3 m/s 745 mmHg 83%
    04:00 +17°C° 0 mm 3 m/s 745 mmHg 83%
    05:00 +17°C° 0 mm 3 m/s 745 mmHg 83%
    06:00 +18°C° 0 mm 3 m/s 745 mmHg 80%
    07:00 +20°C° 0 mm 4 m/s 745 mmHg 77%
    08:00 +22°C° 0 mm 4 m/s 745 mmHg 74%
    09:00 +23°C° 0 mm 4 m/s 745 mmHg 71%
    10:00 +26°C° 0 mm 4 m/s 745 mmHg 68%
    11:00 +27°C° 0 mm 4 m/s 746 mmHg 64%
    12:00 +27°C° 0,9 mm 4 m/s 746 mmHg 68%
    13:00 +27°C° 0,9 mm 4 m/s 745 mmHg 72%
    14:00 +27°C° 0,9 mm 3 m/s 745 mmHg 76%
    15:00 +27°C° 0,7 mm 3 m/s 745 mmHg 78%
    16:00 +26°C° 0,7 mm 3 m/s 745 mmHg 80%
    17:00 +26°C° 0,7 mm 3 m/s 746 mmHg 82%
    18:00 +24°C° 0,3 mm 3 m/s 746 mmHg 85%
    19:00 +22°C° 0,3 mm 3 m/s 746 mmHg 89%
    20:00 +21°C° 0,3 mm 3 m/s 746 mmHg 93%
    21:00 +20°C° 0,2 mm 3 m/s 746 mmHg 94%
    22:00 +20°C° 0,2 mm 3 m/s 746 mmHg 96%
    23:00 +20°C° 0,2 mm 2 m/s 746 mmHg 97%

    27 Juillet, Vendredi

    Heure Température Précipitation Vent Pression Humidité
    00:00 +19°C° 0 mm 2 m/s 746 mmHg 97%
    01:00 +19°C° 0 mm 2 m/s 746 mmHg 98%
    02:00 +19°C° 0 mm 2 m/s 747 mmHg 98%
    03:00 +19°C° 0 mm 2 m/s 747 mmHg 98%
    04:00 +19°C° 0 mm 2 m/s 747 mmHg 98%
    05:00 +19°C° 0 mm 2 m/s 747 mmHg 98%
    06:00 +20°C° 0 mm 2 m/s 747 mmHg 95%
    07:00 +21°C° 0 mm 3 m/s 748 mmHg 92%
    08:00 +24°C° 0 mm 3 m/s 748 mmHg 89%
    09:00 +26°C° 0,1 mm 3 m/s 748 mmHg 79%
    10:00 +27°C° 0,1 mm 4 m/s 748 mmHg 70%
    11:00 +29°C° 0,1 mm 4 m/s 748 mmHg 61%
    12:00 +29°C° 0,6 mm 4 m/s 748 mmHg 60%
    13:00 +30°C° 0,6 mm 5 m/s 748 mmHg 59%
    14:00 +30°C° 0,6 mm 5 m/s 748 mmHg 59%
    15:00 +29°C° 1,3 mm 4 m/s 748 mmHg 64%
    16:00 +28°C° 1,3 mm 4 m/s 748 mmHg 68%
    17:00 +28°C° 1,3 mm 3 m/s 748 mmHg 73%
    18:00 +26°C° 0,4 mm 3 m/s 748 mmHg 76%
    19:00 +25°C° 0,4 mm 3 m/s 748 mmHg 78%
    20:00 +24°C° 0,4 mm 3 m/s 749 mmHg 81%
    21:00 +22°C° 0,1 mm 3 m/s 749 mmHg 80%
    22:00 +22°C° 0,1 mm 3 m/s 749 mmHg 80%
    23:00 +21°C° 0,1 mm 3 m/s 749 mmHg 79%

    28 Juillet, Samedi

    Heure Température Précipitation Vent Pression Humidité
    00:00 +21°C° 0 mm 3 m/s 749 mmHg 82%
    01:00 +20°C° 0 mm 2 m/s 749 mmHg 84%
    02:00 +20°C° 0 mm 2 m/s 749 mmHg 86%
    03:00 +20°C° 0 mm 2 m/s 749 mmHg 88%
    04:00 +19°C° 0 mm 2 m/s 750 mmHg 90%
    05:00 +19°C° 0 mm 2 m/s 750 mmHg 92%
    06:00 +21°C° 0 mm 2 m/s 750 mmHg 86%
    07:00 +24°C° 0 mm 3 m/s 750 mmHg 80%
    08:00 +25°C° 0 mm 3 m/s 750 mmHg 74%
    09:00 +27°C° 0 mm 3 m/s 750 mmHg 68%
    10:00 +28°C° 0 mm 3 m/s 750 mmHg 62%
    11:00 +30°C° 0 mm 4 m/s 750 mmHg 55%
    12:00 +30°C° 0,1 mm 4 m/s 750 mmHg 54%
    13:00 +30°C° 0,1 mm 4 m/s 750 mmHg 53%
    14:00 +31°C° 0,1 mm 3 m/s 750 mmHg 52%
    15:00 +30°C° 0,1 mm 3 m/s 750 mmHg 57%
    16:00 +29°C° 0,1 mm 2 m/s 750 mmHg 61%
    17:00 +29°C° 0,1 mm 2 m/s 750 mmHg 66%
    18:00 +27°C° 0,1 mm 2 m/s 750 mmHg 72%
    19:00 +25°C° 0,1 mm 2 m/s 750 mmHg 78%
    20:00 +24°C° 0,1 mm 2 m/s 750 mmHg 84%
    21:00 +23°C° 0 mm 2 m/s 750 mmHg 86%
    22:00 +21°C° 0 mm 2 m/s 750 mmHg 88%
    23:00 +20°C° 0 mm 2 m/s 750 mmHg 90%
    Voir plus